FW5156 Weather Reports


Display with metric or nautical units.
time (UTC)temp
F
wind
direction
speed
MPH
gust
MPH
rain 1hr
in
rain 24hr
in
rain mn
in
humidity
%
barometer
mb
20260903075517 79 0.0 3.0 0.00 0.00 0.00 79 1017.2
20260903074516 79 0.0 0.0 0.00 0.00 0.00 79 1017.2
20260903073517 79 0.0 0.0 0.00 0.00 0.00 79 1017.1
20260903072536 79 0.0 2.0 0.00 0.00 0.00 79 1017.1
20260903071516 79 0.0 2.0 0.00 0.00 0.00 79 1017.1
20260903070517 79 0.0 0.0 0.00 0.00 0.00 80 1017.1
20260903065537 79 0.0 3.0 0.00 0.00 0.00 80 1017.1
20260903064556 79 0.0 1.0 0.00 0.00 0.00 81 1017.2
20260903063516 79 0.0 0.0 0.00 0.00 0.00 80 1017.2
20260903062517 79 0.0 0.0 0.00 0.00 0.00 80 1017.3
20260903061516 80 0.0 0.0 0.00 0.00 0.00 80 1017.1
20260903060517 80 0.0 1.0 0.00 0.00 0.00 80 1017.1
20260903055516 80 0.0 2.0 0.00 0.00 0.00 81 1017.1
20260903053516 80 0.0 3.0 0.00 0.00 0.00 81 1017.0
20260903052516 80 0.0 0.0 0.00 0.00 0.00 81 1017.0
20260903051557 80 0.0 2.0 0.00 0.00 0.00 81 1017.0
20260903050536 80 0.0 0.0 0.00 0.00 0.00 81 1016.9
20260903045517 80 248 1.0 6.0 0.00 0.00 0.00 82 1016.9
20260903044516 80 0.0 0.0 0.00 0.00 0.00 82 1016.8
20260903043516 80 0.0 2.0 0.00 0.00 0.00 82 1016.7
20260903042517 80 0.0 1.0 0.00 0.00 0.00 81 1016.7
20260903041517 81 0.0 0.0 0.00 0.00 0.00 81 1016.7
20260903040537 81 0.0 3.0 0.00 0.00 0.00 81 1016.6
20260903035517 81 0.0 1.0 0.00 0.00 0.00 81 1016.6
20260903034516 81 0.0 1.0 0.00 0.00 0.00 81 1016.6
20260903033516 81 0.0 1.0 0.00 0.00 0.00 81 1016.6
20260903032516 81 0.0 0.0 0.00 0.00 0.00 81 1016.6
20260903031517 81 0.0 0.0 0.00 0.00 0.00 81 1016.7
20260903030536 81 0.0 0.0 0.00 0.00 0.00 82 1016.7
20260903025517 81 0.0 1.0 0.00 0.00 0.00 82 1016.7
20260903024516 81 0.0 0.0 0.00 0.00 0.00 82 1016.8
20260903023517 81 0.0 0.0 0.00 0.00 0.00 82 1016.7
20260903022516 81 0.0 0.0 0.00 0.00 0.00 82 1016.8
20260903021516 81 0.0 0.0 0.00 0.00 0.00 82 1016.8
20260903020537 81 0.0 0.0 0.00 0.00 0.00 82 1016.7
20260903015536 81 0.0 0.0 0.00 0.00 0.00 81 1016.6
20260903014516 82 0.0 0.0 0.00 0.00 0.00 81 1016.6
20260903013516 82 0.0 0.0 0.00 0.00 0.00 81 1016.3
20260903012517 82 0.0 0.0 0.00 0.00 0.00 82 1016.3
20260903011517 82 0.0 0.0 0.00 0.00 0.00 82 1016.2
20260903010516 82 0.0 0.0 0.00 0.00 0.00 81 1016.0
20260903005517 82 0.0 0.0 0.00 0.00 0.00 81 1016.0
20260903004517 82 0.0 0.0 0.00 0.00 0.00 81 1015.9
20260903003517 83 0.0 0.0 0.00 0.00 0.00 80 1016.0
20260903002517 83 0.0 0.0 0.00 0.00 0.00 80 1016.0
20260903001516 84 0.0 0.0 0.00 0.00 0.00 80 1016.0
20260903000516 85 0.0 0.0 0.00 0.00 0.00 79 1016.2
20260902235517 85 0.0 0.0 0.00 0.00 0.00 78 1016.1
20260902234516 86 0.0 0.0 0.00 0.00 0.00 76 1016.1
20260902233517 87 0.0 0.0 0.00 0.00 0.00 73 1016.2
20260902232516 88 0.0 0.0 0.00 0.00 0.00 71 1016.1
20260902231517 89 0.0 0.0 0.00 0.00 0.00 69 1016.2
20260902230517 90 0.0 0.0 0.00 0.00 0.00 69 1016.3
20260902225516 91 0.0 1.0 0.00 0.00 0.00 66 1016.3
20260902224516 92 0.0 0.0 0.00 0.00 0.00 64 1016.3
20260902223517 93 0.0 0.0 0.00 0.00 0.00 64 1016.3
20260902222516 94 0.0 0.0 0.00 0.00 0.00 63 1016.5
20260902221517 94 0.0 1.0 0.00 0.00 0.00 61 1016.7
20260902220517 94 0.0 0.0 0.00 0.00 0.00 62 1016.7
20260902215516 94 0.0 1.0 0.00 0.00 0.00 61 1016.7
20260902214516 95 0.0 1.0 0.00 0.00 0.00 59 1016.7
20260902213517 95 0.0 0.0 0.00 0.00 0.00 59 1016.7
20260902212517 95 0.0 2.0 0.00 0.00 0.00 57 1016.8
20260902211517 95 0.0 1.0 0.00 0.00 0.00 58 1016.9
20260902210517 95 270 1.0 4.0 0.00 0.00 0.00 56 1017.0
20260902205517 95 0.0 2.0 0.00 0.00 0.00 56 1017.0
20260902204516 95 0.0 3.0 0.00 0.00 0.00 57 1017.1
20260902203516 95 0.0 4.0 0.00 0.00 0.00 59 1017.1
20260902202517 95 203 1.0 5.0 0.00 0.00 0.00 57 1017.2
20260902201516 95 0.0 1.0 0.00 0.00 0.00 58 1017.3
20260902200517 95 203 1.0 8.0 0.00 0.00 0.00 56 1017.4
20260902195517 95 0.0 5.0 0.00 0.00 0.00 56 1017.5
20260902194517 94 225 1.0 6.0 0.00 0.00 0.00 57 1017.6
20260902193517 95 0.0 2.0 0.00 0.00 0.00 59 1017.7
20260902192517 95 0.0 3.0 0.00 0.00 0.00 60 1017.8
20260902191517 95 203 1.0 5.0 0.00 0.00 0.00 59 1017.7
20260902190516 94 0.0 5.0 0.00 0.00 0.00 61 1017.9
20260902185517 94 225 1.0 6.0 0.00 0.00 0.00 61 1017.9
20260902184517 94 0.0 2.0 0.00 0.00 0.00 61 1018.0
20260902183517 93 0.0 4.0 0.00 0.00 0.00 61 1018.0
20260902182517 93 270 1.0 10.0 0.00 0.00 0.00 61 1018.0
20260902181517 93 0.0 5.0 0.00 0.00 0.00 63 1018.0
20260902180517 93 293 1.0 6.0 0.00 0.00 0.00 62 1018.1
20260902175516 92 225 1.0 5.0 0.00 0.00 0.00 61 1018.1
20260902174557 92 293 1.0 5.0 0.00 0.00 0.00 63 1018.3
20260902173517 92 315 2.0 7.0 0.00 0.00 0.00 64 1018.3
20260902172536 92 225 1.0 6.0 0.00 0.00 0.00 63 1018.5
20260902171517 92 315 1.0 5.0 0.00 0.00 0.00 64 1018.5
20260902170517 92 0.0 4.0 0.00 0.00 0.00 66 1018.6
20260902165537 91 0.0 4.0 0.00 0.00 0.00 66 1018.7
20260902164537 91 225 1.0 6.0 0.00 0.00 0.00 64 1018.7
20260902163517 91 293 1.0 4.0 0.00 0.00 0.00 66 1018.8
20260902162517 91 0.0 4.0 0.00 0.00 0.00 67 1018.8
20260902161517 90 293 1.0 6.0 0.00 0.00 0.00 66 1018.8
20260902160537 90 315 2.0 7.0 0.00 0.00 0.00 66 1018.9
20260902155517 89 225 1.0 6.0 0.00 0.00 0.00 70 1018.8
20260902154517 89 0.0 3.0 0.00 0.00 0.00 69 1018.9
20260902153537 88 0.0 2.0 0.00 0.00 0.00 70 1018.9
20260902152517 87 0.0 2.0 0.00 0.00 0.00 73 1018.8
20260902151517 87 0.0 3.0 0.00 0.00 0.00 72 1018.8
20260902150517 86 0.0 1.0 0.00 0.00 0.00 74 1019.0
20260902145517 85 203 1.0 5.0 0.00 0.00 0.00 75 1018.9
20260902144517 85 270 1.0 6.0 0.00 0.00 0.00 75 1018.9
20260902143517 84 0.0 2.0 0.00 0.00 0.00 75 1018.9
20260902142537 84 0.0 3.0 0.00 0.00 0.00 75 1019.0
20260902141517 83 0.0 3.0 0.00 0.00 0.00 77 1019.0
20260902140517 83 0.0 3.0 0.00 0.00 0.00 77 1019.0
20260902135517 82 0.0 3.0 0.00 0.00 0.00 78 1019.2
20260902134517 82 0.0 3.0 0.00 0.00 0.00 80 1019.3
20260902133517 81 0.0 2.0 0.00 0.00 0.00 82 1019.3
20260902132517 80 0.0 2.0 0.00 0.00 0.00 82 1019.1
20260902131517 79 0.0 2.0 0.00 0.00 0.00 83 1018.9
20260902130517 78 0.0 0.0 0.00 0.00 0.00 85 1018.9
20260902125537 77 0.0 1.0 0.00 0.00 0.00 87 1018.9
20260902124517 76 0.0 2.0 0.00 0.00 0.00 87 1018.9
20260902123537 75 0.0 0.0 0.00 0.00 0.00 87 1019.1
20260902122517 75 0.0 1.0 0.00 0.00 0.00 87 1019.1
20260902121517 75 0.0 0.0 0.00 0.00 0.00 87 1019.0
20260902120517 75 0.0 1.0 0.00 0.00 0.00 88 1019.2
20260902115517 75 0.0 0.0 0.00 0.00 0.00 87 1019.1
20260902114537 75 0.0 2.0 0.00 0.00 0.00 87 1019.1
20260902113517 75 0.0 0.0 0.00 0.00 0.00 87 1018.9
20260902112517 75 0.0 0.0 0.00 0.00 0.00 87 1018.8
20260902111517 75 0.0 0.0 0.00 0.00 0.00 86 1018.8
20260902110517 75 0.0 0.0 0.00 0.00 0.00 86 1018.7
20260902105517 75 0.0 2.0 0.00 0.00 0.00 86 1018.7
20260902104517 75 0.0 0.0 0.00 0.00 0.00 86 1018.6
20260902103517 75 0.0 0.0 0.00 0.00 0.00 86 1018.5
20260902102517 76 0.0 0.0 0.00 0.00 0.00 85 1018.4
20260902101517 76 0.0 0.0 0.00 0.00 0.00 85 1018.4
20260902100537 76 0.0 2.0 0.00 0.00 0.00 85 1018.4
20260902095517 76 0.0 1.0 0.00 0.00 0.00 85 1018.3
20260902094517 76 0.0 2.0 0.00 0.00 0.00 84 1018.3
20260902093516 76 0.0 2.0 0.00 0.00 0.00 84 1018.2
20260902092517 77 0.0 2.0 0.00 0.00 0.00 83 1018.3
20260902091516 77 0.0 0.0 0.00 0.00 0.00 83 1018.2
20260902090517 77 0.0 0.0 0.00 0.00 0.00 82 1018.1
20260902085517 77 0.0 2.0 0.00 0.00 0.00 82 1018.1
20260902084517 77 248 1.0 7.0 0.00 0.00 0.00 82 1018.1
20260902083517 77 0.0 0.0 0.00 0.00 0.00 82 1018.0
20260902082517 77 0.0 0.0 0.00 0.00 0.00 82 1018.0
20260902081517 77 0.0 3.0 0.00 0.00 0.00 82 1018.0
20260902080537 77 0.0 2.0 0.00 0.00 0.00 82 1017.9